Weather History for Macomb, IL

Change the Weather History Date:

Monday, June 9, 2014

  Actual Average (KBRL) Record (KBRL)
Temperature  
Mean Temperature 66 °F 72 °F  
Max Temperature 77 °F 82 °F 102 °F (1911)
Min Temperature 55 °F 61 °F 40 °F (1977)
Degree Days  
Heating Degree Days 0 1  
Month to date heating degree days 9  
Since 1 June heating degree days 9  
Since 1 July heating degree days 5596  
Cooling Degree Days 1 7  
Month to date cooling degree days 56  
Year to date cooling degree days 159  
Since 1 June cooling degree days 56  
Growing Degree Days 16 (Base 50)    
Moisture  
Dew Point 57 °F    
Average Humidity 71    
Maximum Humidity 94    
Minimum Humidity 47    
Precipitation  
Precipitation 0.00 in 0.16 in 0.67 in (2011)
Month to date precipitation 1.34  
Year to date precipitation 15.60  
Sea Level Pressure  
Sea Level Pressure 29.95 in    
Wind  
Wind Speed 6 mph (East)    
Max Wind Speed 14 mph    
Max Gust Speed 18 mph    
Visibility 10 miles    
Events      
T = Trace of Precipitation, MM = Missing Value Source: NWS Daily Summary

Daily Weather History Graph

Daily Weather History Graph

Search for Another Location

Airport:

Trip Planner

Search our weather history database for the weather conditions in past years. The results will help you decide how hot, cold, wet, or windy it might be!

Date:

Astronomy

Jun. 09, 2014 Rise Set
Actual Time 5:31 AM CDT 8:32 PM CDT
Civil Twilight 4:58 AM CDT 9:05 PM CDT
Nautical Twilight 4:17 AM CDT 9:47 PM CDT
Astronomical Twilight 3:28 AM CDT 10:36 PM CDT
Moon 4:52 PM CDT (6/9) 3:00 AM CDT (6/9)
Length of Visible Light 16h 06m
Length of Day
15h 00m
Waxing Gibbous, 85% of the Moon is Illuminated
Jun 9
Waxing Gibbous
Jun 12
Full
Jun 19
Last Quarter
Jun 27
New
Jul 5
First Quarter

Hourly Weather History & Observations

Time (CDT) Temp. Dew Point Humidity Pressure Visibility Wind Dir Wind Speed Gust Speed Precip Events Conditions
12:15 AM 64.0 °F 61.7 °F 92% 30.04 in 10.0 mi NE 4.6 mph - N/A   Mostly Cloudy
12:35 AM 63.9 °F 61.7 °F 93% 30.03 in 10.0 mi ENE 6.9 mph - N/A   Overcast
12:55 AM 63.5 °F 61.0 °F 91% 30.02 in 10.0 mi ENE 8.1 mph - N/A   Scattered Clouds
1:15 AM 62.8 °F 60.8 °F 93% 30.02 in 10.0 mi East 8.1 mph - N/A   Clear
1:35 AM 62.2 °F 60.1 °F 93% 30.02 in 10.0 mi East 6.9 mph - N/A   Clear
1:55 AM 61.7 °F 59.7 °F 93% 30.01 in 10.0 mi East 6.9 mph - N/A   Clear
2:15 AM 60.8 °F 59.2 °F 94% 30.01 in 10.0 mi East 6.9 mph - N/A   Clear
2:35 AM 60.8 °F 52.9 °F 75% 30.01 in 10.0 mi East 8.1 mph - N/A   Clear
2:55 AM 59.0 °F 52.7 °F 80% 30.01 in 10.0 mi East 5.8 mph - N/A   Clear
3:15 AM 57.4 °F 52.7 °F 84% 30.01 in 10.0 mi East 5.8 mph - N/A   Clear
3:35 AM 57.6 °F 51.8 °F 81% 30.01 in 10.0 mi ENE 5.8 mph - N/A   Mostly Cloudy
3:55 AM 58.6 °F 50.7 °F 75% 30.01 in 10.0 mi ENE 5.8 mph - N/A   Overcast
4:15 AM 58.6 °F 50.9 °F 75% 30.00 in 10.0 mi ENE 6.9 mph - N/A   Overcast
4:35 AM 58.3 °F 49.8 °F 73% 30.00 in 10.0 mi Calm Calm - N/A   Mostly Cloudy
4:55 AM 57.0 °F 51.6 °F 82% 30.00 in 10.0 mi Calm Calm - N/A   Mostly Cloudy
5:15 AM 55.6 °F 53.1 °F 91% 30.00 in 10.0 mi ENE 3.5 mph - N/A   Overcast
5:35 AM 55.8 °F 52.7 °F 89% 30.00 in 10.0 mi ENE 3.5 mph - N/A   Scattered Clouds
5:55 AM 55.4 °F 50.2 °F 83% 30.00 in 10.0 mi ENE 6.9 mph - N/A   Clear
6:15 AM 55.4 °F 49.1 °F 79% 30.00 in 10.0 mi ENE 6.9 mph - N/A   Clear
6:35 AM 56.3 °F 48.7 °F 76% 30.00 in 10.0 mi ENE 6.9 mph - N/A   Clear
6:55 AM 57.9 °F 48.9 °F 72% 30.01 in 10.0 mi East 4.6 mph - N/A   Clear
7:15 AM 58.5 °F 48.6 °F 70% 30.00 in 10.0 mi ENE 8.1 mph - N/A   Clear
7:35 AM 59.9 °F 49.6 °F 69% 30.00 in 10.0 mi ENE 6.9 mph - N/A   Scattered Clouds
7:55 AM 60.1 °F 48.7 °F 66% 29.99 in 10.0 mi East 9.2 mph - N/A   Overcast
8:15 AM 61.7 °F 48.6 °F 62% 30.00 in 10.0 mi East 9.2 mph - N/A   Overcast
8:35 AM 62.2 °F 48.9 °F 62% 29.99 in 10.0 mi East 9.2 mph - N/A   Overcast
8:55 AM 62.6 °F 50.4 °F 64% 29.99 in 10.0 mi East 8.1 mph - N/A   Mostly Cloudy
9:15 AM 64.4 °F 50.9 °F 62% 29.99 in 10.0 mi ENE 6.9 mph - N/A   Scattered Clouds
9:35 AM 65.7 °F 52.3 °F 62% 29.99 in 10.0 mi East 8.1 mph - N/A   Clear
9:55 AM 66.2 °F 53.1 °F 63% 29.98 in 10.0 mi East 4.6 mph - N/A   Clear
10:15 AM 67.6 °F 54.9 °F 64% 29.97 in 10.0 mi East 4.6 mph - N/A   Clear
10:35 AM 68.9 °F 55.9 °F 63% 29.97 in 10.0 mi ENE 8.1 mph - N/A   Clear
10:55 AM 69.8 °F 56.3 °F 62% 29.97 in 10.0 mi East 6.9 mph - N/A   Clear
11:15 AM 70.7 °F 56.8 °F 61% 29.98 in 10.0 mi East 9.2 mph - N/A   Clear
11:35 AM 71.8 °F 55.8 °F 57% 29.98 in 10.0 mi SE 4.6 mph - N/A   Clear
11:55 AM 72.9 °F 56.5 °F 56% 29.97 in 10.0 mi East 9.2 mph - N/A   Clear
12:15 PM 73.6 °F 56.3 °F 55% 29.97 in 10.0 mi East 8.1 mph - N/A   Clear
12:35 PM 74.5 °F 57.4 °F 55% 29.96 in 10.0 mi East 6.9 mph - N/A   Clear
12:55 PM 75.2 °F 57.0 °F 53% 29.96 in 10.0 mi SSE 10.4 mph - N/A   Clear
1:15 PM 75.4 °F 58.6 °F 56% 29.95 in 10.0 mi ENE 5.8 mph - N/A   Clear
1:35 PM 75.0 °F 59.0 °F 57% 29.94 in 10.0 mi NE 5.8 mph - N/A   Clear
2:15 PM 77.0 °F 57.2 °F 50% 29.93 in 10.0 mi East 3.5 mph - N/A   Scattered Clouds
2:35 PM 76.8 °F 57.4 °F 51% 29.92 in 10.0 mi East 6.9 mph - N/A   Scattered Clouds
2:55 PM 77.4 °F 55.6 °F 47% 29.92 in 10.0 mi ESE 9.2 mph - N/A   Scattered Clouds
3:15 PM 77.4 °F 57.0 °F 49% 29.91 in 10.0 mi ESE 6.9 mph - N/A   Clear
3:35 PM 77.2 °F 56.8 °F 49% 29.89 in 10.0 mi ESE 4.6 mph - N/A   Clear
3:55 PM 76.8 °F 58.1 °F 52% 29.89 in 10.0 mi ENE 6.9 mph - N/A   Clear
4:15 PM 77.2 °F 59.5 °F 54% 29.88 in 10.0 mi ENE 6.9 mph - N/A   Clear
4:35 PM 77.0 °F 59.0 °F 54% 29.88 in 10.0 mi East 8.1 mph - N/A   Scattered Clouds
4:55 PM 76.6 °F 59.2 °F 55% 29.88 in 10.0 mi East 9.2 mph - N/A   Clear
5:15 PM 77.0 °F 59.9 °F 55% 29.87 in 10.0 mi East 9.2 mph - N/A   Clear
5:35 PM 76.6 °F 59.4 °F 55% 29.87 in 10.0 mi East 11.5 mph 18.4 mph N/A   Clear
5:55 PM 76.5 °F 60.6 °F 58% 29.86 in 10.0 mi East 11.5 mph - N/A   Scattered Clouds
6:15 PM 75.9 °F 60.6 °F 59% 29.86 in 10.0 mi East 10.4 mph - N/A   Mostly Cloudy
6:35 PM 74.5 °F 61.2 °F 63% 29.86 in 10.0 mi SE 9.2 mph - N/A   Overcast
6:55 PM 72.9 °F 61.5 °F 67% 29.87 in 10.0 mi SE 13.8 mph 17.3 mph N/A   Overcast
7:15 PM 72.1 °F 60.6 °F 67% 29.87 in 10.0 mi SE 9.2 mph - N/A   Overcast
7:35 PM 71.6 °F 60.3 °F 67% 29.86 in 10.0 mi SE 5.8 mph - N/A   Scattered Clouds
7:55 PM 70.7 °F 61.2 °F 72% 29.86 in 10.0 mi ESE 4.6 mph - N/A   Clear
8:15 PM 69.6 °F 61.7 °F 76% 29.87 in 10.0 mi East 4.6 mph - N/A   Clear
8:35 PM 68.5 °F 62.1 °F 80% 29.87 in 10.0 mi East 4.6 mph - N/A   Clear
8:55 PM 67.1 °F 62.6 °F 85% 29.87 in 10.0 mi ENE 5.8 mph - N/A   Clear
9:15 PM 66.6 °F 62.6 °F 87% 29.87 in 10.0 mi East 4.6 mph - N/A   Clear
9:35 PM 66.2 °F 62.8 °F 89% 29.88 in 10.0 mi East 4.6 mph - N/A   Clear
9:55 PM 66.2 °F 62.6 °F 88% 29.88 in 10.0 mi East 4.6 mph - N/A   Clear
10:15 PM 65.7 °F 62.8 °F 90% 29.88 in 10.0 mi ENE 4.6 mph - N/A   Mostly Cloudy
10:35 PM 65.7 °F 61.7 °F 87% 29.87 in 10.0 mi NE 5.8 mph - N/A   Scattered Clouds
10:55 PM 65.3 °F 61.9 °F 89% 29.87 in 10.0 mi NE 5.8 mph - N/A   Clear
11:15 PM 65.3 °F 62.1 °F 89% 29.88 in 10.0 mi NE 4.6 mph - N/A   Clear
11:35 PM 65.3 °F 61.7 °F 88% 29.88 in 10.0 mi NE 5.8 mph - N/A   Scattered Clouds
11:55 PM 65.5 °F 61.7 °F 88% 29.87 in 10.0 mi ENE 5.8 mph - N/A   Overcast